Find OneWeb SL0565

NORAD ID: 55146 Int'l Des: 2023-004 Owner: ONEWEBN Country: UK Constellation: oneweb operational
又名: ONEWEB-0565 spacetrack, celestrak
LEOCIRCULARPOLARONEWEB_TYPE

当前视图

正在加载3D地球...

About OneWeb SL0565

OneWeb SL0565 (NORAD 55146) is a oneweb constellation satellite launched Jan 10, 2023 by ONEWEBN of UK. It operates in LEO, CIRCULAR, POLAR, ONEWEB_TYPE orbit with a mass of 148.00 kg.

即将过境

Passes for default location (London). Set your location on the main map for personalized predictions.

高度历史

Loading altitude history...

两行轨道根数

1 55146U 23004G 26265.87257065 .00000017 00000-0 10664-4 0 9990
2 55146 87.9145 316.0628 0001589 102.6539 257.4771 13.18684334182579
Epoch: Sep 22, 2026 • Age: 7 hours

当前状态

高度 1192.1 km
远地点 / 近地点 N/A
速度 7.26 km/s
星下点 19.86°N, 110.17°W
发射日期 Jan 10, 2023
运行时间 3.7 years
类型 internet

技术详情

分类 Payload
质量 148.00 kg
干质量 140.00 kg
长度 1.30 m
直径 1.00 m
跨度 5.00 m
形状 ? Trapezoid+2 pan
制造商 ONEWUS
平台类型 ARROW
阶段状态 In Orbit
所有者/国家 ONEWEBN/UK

Most Searched